Wind_Speed
4 3 3 1 1 3 4 5 7 8 9 10 10 11 11 10 9 10 10 10 11 11 12 12 12 12 12 13 13 14 15 15 16 16 17 17 18 18 19 19 20 20 20 20 21 21 21 22 22
4 3 2 1 1 2 4 5 6 7 9 9 10 10 10 10 9 9 10 10 11 11 12 12 12 13 13 14 14 15 16 16 16 17 18 18 19 20 20 20 21 21 21 21 21 22 22 22 23
4 3 1 1 1 1 3 4 6 6 7 8 9 10 10 10 10 9 10 10 10 11 12 12 13 13 14 15 15 16 16 17 17 18 19 19 20 20 21 21 21 22 22 22 22 22 23 23 23
4 3 2 1 1 1 2 4 5 6 6 7 8 10 10 10 10 10 11 11 11 11 12 13 14 14 15 16 16 17 17 18 18 19 19 20 21 21 21 22 22 22 22 22 23 23 23 23 24
6 5 4 3 2 2 2 3 4 5 6 7 8 8 10 10 10 11 11 12 12 13 13 14 15 15 16 17 17 18 18 18 19 19 20 20 20 21 21 21 22 22 23 23 23 24 24 24 24
8 7 6 5 5 4 4 3 4 5 6 7 8 9 10 10 10 11 11 12 13 13 14 15 15 15 16 16 17 17 18 18 19 19 19 20 20 21 22 22 23 23 23 24 24 25 25 25 25
11 10 9 8 7 6 6 5 5 6 6 8 9 10 10 10 10 11 11 12 13 13 14 15 15 15 16 17 17 17 18 19 19 20 20 21 21 22 23 23 24 24 25 25 25 26 26 26 26
15 13 12 10 9 9 8 8 8 8 8 8 9 10 10 11 11 11 12 12 13 13 14 14 15 15 16 17 17 18 19 19 20 21 21 22 23 23 24 25 25 26 26 27 27 27 28 28 28
18 16 15 13 12 11 11 10 10 10 10 10 11 11 11 12 12 13 13 14 14 14 14 15 16 17 17 18 19 19 20 21 21 22 23 23 24 25 25 26 26 27 27 28 28 29 29 29 29
20 19 18 17 16 15 14 13 13 12 12 12 12 13 13 13 14 14 15 16 16 17 17 18 18 19 20 20 21 21 22 22 23 23 24 25 25 26 26 27 27 28 28 29 29 29 30 30 30
24 23 22 21 20 18 17 16 16 15 15 15 15 15 15 15 16 16 17 18 19 19 20 20 21 21 22 22 22 23 23 23 23 24 24 25 26 26 27 27 28 28 28 29 29 30 30 31 31
27 27 26 25 23 22 21 20 19 17 18 18 17 17 17 18 18 19 20 20 21 22 22 23 23 23 24 24 24 24 24 24 24 25 25 26 26 26 27 27 27 28 29 29 30 30 31 31 32
31 30 30 29 27 26 25 23 22 20 22 21 20 20 21 21 21 22 22 23 24 24 25 25 25 26 26 26 26 26 25 26 26 26 26 26 27 27 27 28 29 29 30 30 30 31 31 32 32
34 33 33 32 31 30 29 27 25 24 26 24 24 24 24 24 24 24 25 25 25 26 27 27 27 27 27 27 27 27 27 27 27 27 27 27 28 28 28 29 30 30 30 31 32 32 33 33 34
37 36 35 35 35 34 33 30 28 29 29 28 27 26 26 27 27 27 27 27 27 28 28 29 29 29 29 29 28 28 28 28 28 28 28 28 29 29 29 30 30 31 31 32 33 33 34 35 35
38 38 37 37 38 37 36 32 32 33 31 31 30 29 29 29 29 29 29 29 29 29 29 30 30 30 30 29 29 29 29 29 29 29 29 29 29 29 30 30 31 32 32 33 34 34 35 35 36
37 37 37 38 39 39 39 35 34 36 34 33 32 32 31 31 32 31 31 30 31 30 31 31 31 30 30 30 30 29 29 29 29 29 29 29 30 30 31 31 32 33 34 34 35 35 36 36 36
37 38 37 37 39 41 41 37 35 37 36 34 34 34 33 34 34 34 33 33 32 32 32 32 31 31 31 31 30 30 30 30 30 30 30 30 31 31 32 33 33 34 35 36 36 37 37 37 37
40 40 38 37 40 42 42 40 36 38 38 36 35 35 35 35 36 36 35 34 33 33 33 32 32 31 31 31 31 31 31 31 30 30 31 32 32 33 33 34 35 36 36 37 38 38 39 39 39
41 41 39 39 41 44 43 41 38 38 39 39 37 37 37 37 38 37 36 36 35 34 34 33 32 32 32 32 32 31 31 31 31 32 32 33 34 35 35 36 37 38 38 39 39 40 40 41 41
40 40 40 41 43 45 46 43 38 37 38 39 39 38 38 38 38 38 37 36 36 35 34 34 34 33 33 32 32 32 32 32 32 33 34 35 35 36 37 38 39 40 41 41 42 42 42 43 44
38 38 39 41 43 44 46 47 37 36 37 38 39 39 38 38 38 38 38 37 36 35 35 35 34 34 34 33 33 33 33 33 34 34 35 36 37 37 38 40 41 42 43 43 44 44 44 45 45
37 38 40 41 42 43 42 46 39 34 34 35 37 38 38 38 38 38 38 37 36 36 35 35 35 35 35 34 34 34 34 35 35 36 36 37 38 39 41 42 43 43 44 45 46 46 47 47 47
38 39 40 41 42 43 39 43 42 33 33 33 35 37 37 37 36 36 37 36 36 36 35 35 36 36 36 36 35 35 36 36 37 37 38 39 40 42 43 44 45 45 46 47 47 48 48 48 48
37 37 40 42 43 42 40 41 40 35 33 32 33 35 35 35 35 35 35 35 35 35 35 36 36 36 36 36 37 37 37 38 38 39 40 41 42 44 45 46 47 47 48 49 49 49 49 50 50
35 37 39 41 42 41 41 40 35 33 31 31 32 33 34 35 35 35 34 34 34 35 35 36 36 37 37 37 38 38 38 39 40 41 42 43 44 46 47 48 48 49 50 50 50 50 51 51 51
36 37 37 40 42 42 41 38 33 30 30 30 31 32 33 34 34 34 33 33 34 35 35 36 36 37 37 38 38 39 40 41 42 43 44 45 46 47 48 49 50 51 51 51 51 51 52 52 53
37 37 37 40 41 41 39 34 31 29 29 30 30 32 32 33 33 32 32 32 33 34 35 35 36 37 37 38 39 40 41 42 43 44 45 46 48 49 49 51 52 52 52 52 52 52 52 53 54
36 37 38 39 41 41 39 34 30 28 27 27 28 29 30 31 31 32 32 32 32 33 34 35 36 36 37 39 40 41 42 44 45 46 47 48 49 50 51 52 52 52 52 52 52 53 53 54 55
37 38 38 38 38 38 39 35 29 28 27 27 27 28 29 31 31 32 32 32 32 33 34 35 36 37 38 40 41 42 44 45 46 47 48 49 51 52 52 52 52 52 53 53 53 54 55 56 56
Wind_Direction
345 348 352 18 128 172 176 183 187 196 202 207 209 209 213 219 223 226 230 235 239 242 244 247 249 253 258 262 265 268 269 271 273 275 277 279 280 282 283 283 284 285 285 284 283 283 282 280 278
337 345 357 31 80 146 178 186 189 199 206 210 212 213 216 219 225 229 233 238 240 245 250 253 255 258 262 265 267 270 271 273 275 276 278 280 282 283 283 284 284 285 285 285 284 283 282 281 279
317 319 351 36 92 138 180 189 192 202 210 210 213 215 219 222 224 229 235 240 246 251 254 257 260 263 266 268 271 272 274 276 277 279 280 282 283 284 285 285 286 286 286 286 286 285 285 283 282
293 289 288 270 184 171 187 196 197 204 209 211 215 221 227 230 232 237 240 245 251 255 259 262 265 268 270 272 274 275 276 277 278 280 282 283 284 285 286 286 287 287 287 287 287 287 287 286 285
271 268 268 259 241 225 221 213 208 208 214 216 220 226 233 238 241 244 248 252 256 259 263 266 268 271 273 274 276 277 278 278 279 281 282 283 284 285 287 287 288 288 288 288 288 288 288 288 287
260 258 255 255 251 243 241 238 229 225 225 226 230 235 241 246 249 253 255 258 261 264 266 267 269 271 273 275 276 277 278 279 280 281 282 284 285 286 287 288 288 289 289 289 289 289 289 288 287
254 253 251 252 252 247 245 245 244 242 238 237 239 242 248 253 256 259 261 263 265 266 268 270 271 272 273 275 277 278 280 281 282 283 284 285 286 287 287 288 288 289 289 289 289 289 289 288 287
252 252 250 250 251 249 248 248 247 244 243 244 245 248 253 257 261 264 266 268 270 271 272 273 274 275 276 278 279 281 282 283 283 284 284 285 286 287 287 288 288 289 289 289 288 288 288 287 286
250 251 251 250 250 250 250 249 250 249 249 250 251 253 258 261 264 266 269 272 273 274 275 277 278 279 280 280 281 282 283 284 284 284 285 286 287 287 288 288 288 288 289 289 288 288 287 287 286
248 250 250 249 249 250 251 251 251 253 252 252 253 256 259 263 266 269 271 274 276 278 278 280 281 282 282 282 283 284 284 285 285 285 286 287 288 289 289 289 288 288 289 289 289 288 288 287 286
246 248 249 249 249 250 251 252 252 254 256 256 257 259 261 263 266 269 272 274 277 279 280 282 282 283 284 284 284 284 285 285 285 286 287 288 288 289 289 290 290 290 290 290 290 290 289 289 288
245 246 249 250 249 250 251 252 253 255 258 260 262 263 263 264 266 268 271 274 277 279 281 282 283 283 284 284 284 285 285 285 285 286 287 288 288 289 290 290 290 291 291 291 291 290 290 290 289
244 246 248 249 250 250 251 252 254 257 259 260 263 265 267 267 268 270 271 274 276 278 279 281 282 283 283 284 284 284 284 285 285 286 286 287 288 289 290 290 291 291 291 291 291 291 291 290 290
244 246 248 250 251 251 251 252 254 256 259 261 264 266 269 269 270 272 273 274 277 278 279 280 281 281 281 281 282 282 283 284 285 285 286 287 288 289 289 290 291 292 292 292 292 292 292 291 290
244 245 247 249 251 252 252 252 255 255 259 262 264 266 268 269 270 272 273 274 276 277 279 280 280 280 280 280 281 282 282 283 284 284 285 287 288 289 289 290 290 291 292 292 292 293 293 292 291
245 246 247 249 251 252 253 253 255 257 259 262 264 266 268 270 270 272 272 274 275 277 278 279 279 279 279 279 280 280 281 282 283 283 284 286 287 288 289 289 290 291 291 292 293 293 292 292 291
247 248 248 250 251 252 253 253 256 259 260 263 265 267 269 271 271 272 272 273 275 276 277 278 278 278 277 278 278 279 280 281 282 283 284 285 286 287 289 289 290 291 292 292 292 292 292 291 291
249 249 248 250 252 253 253 253 255 260 262 263 266 267 268 270 271 272 272 272 274 275 276 277 276 276 276 276 277 278 279 280 280 282 283 285 286 287 288 289 290 291 291 292 292 292 291 290 289
248 249 250 251 253 254 254 255 255 259 263 264 265 266 268 270 271 271 271 272 273 274 275 275 274 274 274 275 275 276 277 278 278 280 282 284 286 287 288 289 290 291 291 291 292 292 291 290 289
249 250 251 251 254 256 256 256 257 258 262 265 266 267 268 269 271 271 270 271 273 274 273 273 273 273 273 273 274 275 276 277 278 280 281 283 285 286 287 289 290 290 291 291 291 291 291 291 289
251 253 254 254 254 257 259 257 258 260 262 264 265 266 268 268 269 269 269 270 271 272 272 272 272 272 273 272 272 273 274 276 278 280 281 283 285 287 288 289 290 291 291 292 292 292 291 291 290
252 254 256 255 255 256 260 262 257 260 262 264 265 265 266 266 267 267 267 269 269 270 270 270 271 271 271 271 271 272 274 276 278 280 282 284 286 288 289 290 291 292 292 292 292 292 292 291 291
252 253 255 257 258 258 260 265 262 260 261 262 264 265 265 265 265 265 266 267 268 268 268 269 269 270 270 270 271 273 275 277 279 281 283 285 287 289 291 292 293 293 294 293 293 293 292 292 291
250 252 255 258 259 261 262 266 267 265 262 261 262 264 265 265 264 264 265 265 266 266 266 267 268 268 269 270 272 273 276 278 280 282 284 286 289 290 292 293 294 294 294 294 294 294 293 293 292
251 254 257 259 260 264 265 265 269 270 266 263 262 262 263 263 263 264 264 264 264 264 265 266 267 268 269 270 272 274 276 279 281 283 285 287 289 291 293 294 295 295 295 295 295 294 294 293 293
252 254 257 262 263 264 265 266 268 270 270 267 263 261 260 260 261 262 262 262 263 263 264 265 267 268 269 271 273 275 277 280 282 284 286 288 290 292 294 295 296 296 295 295 295 295 294 294 293
249 252 257 261 264 265 266 268 268 270 269 265 262 260 259 259 260 261 261 261 261 262 263 265 267 269 270 272 274 276 279 281 284 286 288 289 291 293 294 295 296 296 296 296 296 295 295 294 294
249 252 254 258 264 267 269 269 270 269 268 265 262 260 260 259 259 258 258 259 260 262 263 265 267 269 271 273 275 278 280 283 285 287 289 290 292 293 295 295 296 296 296 296 296 296 296 295 295
249 252 255 259 262 267 270 270 270 271 269 266 264 261 258 257 258 258 258 259 261 262 264 266 268 270 272 274 277 279 282 284 286 288 290 291 293 294 295 296 296 296 296 296 296 296 296 296 295
248 251 254 258 263 266 268 269 270 270 268 266 262 259 257 256 256 257 258 261 262 264 265 267 269 271 274 276 279 281 283 285 287 289 291 292 293 295 295 296 296 296 296 296 296 296 296 296 296
Height
5854 5854 5855 5855 5856 5857 5857 5858 5859 5860 5861 5862 5863 5865 5866 5868 5870 5873 5871 5871 5872 5872 5873 5873 5874 5874 5874 5874 5874 5874 5874 5874 5874 5873 5873 5872 5872 5871 5871 5870 5870 5869 5868 5868 5867 5867 5866 5866 5865
5855 5855 5856 5856 5856 5856 5857 5857 5858 5859 5860 5861 5862 5864 5865 5866 5867 5868 5869 5869 5870 5871 5871 5872 5872 5872 5872 5872 5872 5872 5872 5871 5871 5870 5870 5869 5868 5868 5867 5867 5866 5866 5865 5864 5864 5863 5863 5862 5861
5855 5855 5856 5856 5856 5856 5857 5857 5858 5859 5859 5861 5862 5863 5864 5865 5866 5867 5867 5868 5869 5869 5869 5870 5870 5870 5870 5870 5869 5869 5869 5868 5868 5867 5867 5866 5865 5865 5864 5863 5863 5862 5861 5861 5860 5859 5859 5858 5857
5855 5855 5856 5857 5856 5856 5856 5857 5857 5858 5859 5860 5861 5862 5863 5864 5865 5865 5866 5866 5867 5867 5867 5867 5867 5867 5867 5867 5867 5866 5866 5865 5865 5864 5864 5863 5862 5861 5861 5860 5859 5859 5858 5857 5856 5856 5855 5854 5853
5854 5855 5856 5856 5856 5856 5856 5856 5857 5858 5859 5860 5860 5861 5861 5862 5863 5864 5864 5864 5865 5865 5865 5865 5865 5865 5865 5864 5864 5863 5863 5862 5862 5861 5860 5859 5859 5858 5857 5856 5856 5855 5854 5853 5853 5852 5851 5850 5849
5853 5854 5855 5855 5855 5856 5856 5856 5857 5857 5858 5859 5859 5860 5860 5861 5861 5862 5862 5863 5863 5863 5863 5862 5862 5862 5862 5861 5861 5860 5860 5859 5858 5858 5857 5856 5855 5854 5853 5853 5852 5851 5850 5849 5848 5847 5847 5846 5845
5852 5852 5853 5854 5854 5855 5855 5855 5856 5857 5857 5858 5858 5859 5859 5859 5859 5860 5860 5860 5860 5860 5860 5860 5860 5859 5859 5858 5858 5857 5856 5856 5855 5854 5853 5852 5852 5851 5850 5849 5848 5847 5846 5845 5844 5843 5842 5841 5841
5848 5850 5851 5852 5853 5853 5854 5854 5855 5856 5856 5857 5857 5858 5858 5858 5858 5857 5858 5858 5858 5858 5858 5857 5857 5856 5856 5855 5854 5854 5853 5852 5851 5850 5849 5848 5847 5846 5845 5844 5843 5842 5841 5840 5839 5838 5837 5836 5836
5845 5848 5848 5849 5850 5851 5852 5852 5853 5854 5855 5855 5855 5856 5856 5856 5856 5856 5855 5855 5855 5855 5855 5855 5854 5854 5853 5852 5851 5850 5849 5848 5847 5846 5845 5844 5843 5842 5841 5839 5838 5837 5836 5835 5834 5833 5832 5831 5830
5842 5844 5845 5846 5847 5848 5849 5850 5850 5852 5852 5853 5853 5854 5854 5854 5854 5853 5853 5853 5852 5852 5852 5851 5851 5850 5849 5848 5847 5846 5845 5844 5843 5841 5840 5839 5838 5837 5836 5834 5833 5832 5831 5830 5829 5828 5826 5825 5824
5837 5839 5840 5842 5843 5844 5845 5846 5847 5848 5849 5850 5851 5851 5851 5851 5851 5851 5850 5850 5849 5849 5848 5847 5847 5846 5845 5844 5843 5842 5841 5839 5838 5837 5836 5834 5833 5832 5830 5829 5828 5826 5825 5824 5823 5822 5820 5819 5818
5832 5834 5835 5837 5838 5840 5841 5842 5844 5845 5846 5846 5847 5847 5848 5848 5847 5847 5847 5846 5846 5845 5844 5843 5842 5842 5841 5840 5838 5837 5836 5834 5833 5832 5831 5829 5828 5826 5825 5824 5822 5821 5820 5818 5817 5816 5814 5813 5812
5826 5828 5829 5831 5833 5835 5836 5837 5839 5841 5841 5842 5843 5843 5843 5843 5843 5843 5843 5842 5841 5840 5839 5838 5838 5837 5836 5835 5833 5832 5831 5829 5828 5827 5825 5824 5822 5821 5819 5818 5817 5815 5814 5812 5811 5810 5808 5807 5806
5820 5822 5823 5825 5827 5828 5830 5832 5834 5836 5835 5837 5837 5838 5838 5838 5838 5838 5838 5837 5836 5835 5834 5833 5832 5831 5830 5829 5828 5827 5825 5824 5823 5821 5820 5818 5817 5815 5814 5812 5811 5809 5808 5806 5805 5803 5802 5800 5799
5812 5815 5817 5819 5820 5822 5824 5827 5829 5828 5829 5831 5831 5832 5833 5833 5832 5832 5832 5832 5831 5830 5829 5828 5826 5825 5824 5823 5822 5821 5820 5818 5817 5815 5814 5813 5811 5809 5808 5806 5805 5803 5801 5800 5798 5796 5795 5793 5792
5805 5808 5811 5812 5813 5814 5818 5822 5821 5821 5823 5824 5825 5826 5826 5826 5826 5826 5826 5826 5825 5824 5823 5822 5821 5819 5818 5817 5816 5815 5813 5812 5811 5809 5808 5807 5805 5803 5802 5800 5798 5797 5795 5793 5791 5789 5788 5786 5784
5798 5801 5803 5804 5805 5807 5809 5814 5814 5814 5816 5818 5819 5819 5820 5820 5819 5819 5819 5819 5819 5818 5817 5815 5814 5813 5812 5811 5809 5808 5807 5806 5804 5803 5802 5800 5799 5797 5795 5794 5792 5790 5788 5786 5784 5782 5781 5779 5777
5791 5792 5795 5797 5797 5798 5800 5805 5808 5806 5808 5810 5811 5812 5812 5813 5812 5812 5812 5812 5812 5811 5810 5809 5808 5806 5805 5804 5803 5802 5801 5799 5798 5797 5795 5794 5792 5791 5789 5787 5785 5783 5781 5779 5777 5775 5773 5771 5769
5781 5783 5787 5790 5789 5789 5792 5796 5800 5799 5800 5802 5803 5804 5805 5805 5804 5804 5805 5805 5804 5804 5803 5802 5801 5800 5799 5798 5796 5795 5794 5793 5792 5790 5789 5788 5786 5784 5782 5780 5778 5776 5774 5772 5769 5767 5765 5763 5761
5773 5776 5779 5782 5781 5781 5783 5787 5791 5793 5793 5794 5795 5796 5796 5796 5796 5796 5796 5797 5797 5796 5796 5795 5794 5793 5792 5791 5790 5789 5788 5786 5785 5784 5783 5781 5779 5777 5775 5773 5771 5769 5766 5764 5761 5759 5756 5753 5751
5765 5768 5771 5772 5773 5772 5773 5778 5784 5786 5785 5786 5787 5787 5788 5788 5788 5788 5788 5788 5789 5788 5788 5787 5787 5786 5785 5784 5783 5782 5781 5780 5779 5777 5776 5774 5772 5770 5768 5766 5763 5761 5758 5755 5752 5750 5747 5744 5741
5758 5761 5761 5762 5763 5765 5766 5766 5777 5778 5778 5778 5778 5778 5779 5779 5780 5780 5780 5780 5781 5781 5780 5780 5779 5779 5778 5777 5776 5775 5774 5773 5771 5770 5768 5767 5765 5762 5760 5758 5755 5752 5749 5746 5743 5740 5737 5734 5731
5751 5752 5753 5754 5754 5757 5759 5757 5766 5770 5770 5770 5769 5769 5770 5771 5771 5771 5772 5772 5773 5773 5773 5772 5772 5771 5770 5769 5768 5768 5767 5765 5764 5762 5760 5759 5756 5754 5751 5749 5746 5743 5740 5736 5733 5730 5727 5723 5720
5742 5744 5745 5745 5746 5749 5753 5751 5754 5761 5762 5762 5761 5761 5761 5762 5762 5763 5763 5764 5765 5765 5765 5764 5764 5763 5763 5762 5761 5760 5759 5757 5756 5754 5752 5750 5748 5745 5742 5739 5736 5733 5730 5726 5723 5719 5715 5712 5708
5736 5738 5738 5737 5738 5741 5744 5743 5747 5751 5752 5753 5753 5752 5753 5753 5754 5755 5755 5756 5756 5757 5757 5756 5756 5755 5755 5754 5753 5752 5751 5749 5748 5746 5744 5741 5739 5736 5733 5729 5726 5723 5719 5715 5712 5708 5704 5700 5697
5729 5730 5731 5731 5731 5733 5734 5735 5742 5742 5743 5743 5743 5744 5744 5745 5745 5746 5747 5748 5748 5749 5749 5748 5748 5747 5747 5746 5745 5744 5742 5741 5739 5737 5735 5732 5729 5726 5723 5719 5715 5712 5708 5704 5700 5696 5692 5688 5684
5720 5722 5724 5723 5722 5723 5725 5729 5733 5735 5734 5734 5735 5735 5735 5736 5737 5738 5739 5740 5740 5740 5741 5740 5740 5739 5739 5738 5737 5735 5734 5732 5730 5728 5726 5723 5719 5716 5713 5709 5705 5701 5697 5693 5688 5684 5680 5676 5672
5713 5715 5715 5715 5714 5714 5718 5721 5725 5726 5726 5726 5726 5727 5728 5729 5729 5730 5730 5731 5732 5732 5732 5732 5731 5731 5730 5729 5728 5727 5725 5723 5721 5718 5715 5712 5709 5705 5701 5698 5693 5689 5685 5681 5677 5672 5668 5663 5659
5706 5707 5708 5708 5708 5709 5709 5716 5717 5718 5718 5718 5719 5719 5720 5721 5721 5722 5723 5723 5724 5724 5724 5724 5723 5723 5722 5720 5719 5718 5716 5713 5711 5708 5705 5702 5698 5694 5690 5686 5682 5677 5673 5668 5664 5660 5655 5650 5645
5697 5699 5700 5702 5702 5702 5702 5708 5710 5710 5710 5710 5711 5711 5712 5713 5714 5714 5715 5716 5716 5716 5716 5715 5715 5714 5713 5712 5710 5708 5706 5703 5701 5697 5694 5690 5686 5682 5678 5674 5669 5665 5660 5656 5651 5647 5642 5637 5632